Skip Page Navigation
NASA JPL Caltech
NASA Logo - Jet Propulsion Laboratory + View the NASA Portal
+ Center for Near-Earth Object Studies
JPL Home Earth Solar System Stars & Galaxies Technology
JPL Solar System Dynamics
BODIES ORBITS EPHEMERIDES TOOLS PHYSICAL DATA DISCOVERY FAQ SITE MAP
JPL Small-Body Database Browser
Search: [ help ]  
362452 (2010 RZ110)
Classification: Main-belt Asteroid          SPK-ID: 2362452
Ephemeris | Orbit Diagram | Orbital Elements | Mission Design | Physical Parameters | Discovery Circumstances ]

[ show orbit diagram ]
Orbital Elements at Epoch 2459200.5 (2020-Dec-17.0) TDB
Reference: JPL 12 (heliocentric ecliptic J2000)
 Element Value Uncertainty (1-sigma)   Units 
e .1960668714673389 5.3908e-08  
a 2.363316974445838 1.606e-08 au
q 1.899948808980585 1.3299e-07 au
i 1.689352946753684 5.9235e-06 deg
node 33.55049497266484 0.00018068 deg
peri 295.4713075005558 0.00018125 deg
M 319.7029891267162 1.604e-05 deg
tp 2459349.042839000465
(2021-May-14.54283900)
5.9948e-05 TDB
period 1327.031977838851
3.63
1.3527e-05
3.703e-08
d
yr
n .2712820836362067 2.7653e-09 deg/d
Q 2.82668513991109 1.9209e-08 au
  Orbit Determination Parameters
   # obs. used (total)      169  
   data-arc span      7567 days (20.72 yr)  
   first obs. used      1999-09-07  
   last obs. used      2020-05-26  
   planetary ephem.      DE441  
   SB-pert. ephem.      SB441-N16  
   condition code      0  
   norm. resid. RMS      .55481  
   source      ORB  
   producer      Otto Matic  
   solution date      2021-Apr-14 09:39:33  

Additional Information
 Earth MOID = .887641 au 
 Jupiter MOID = 2.52139 au 
 T_jup = 3.523 
[ show covariance matrix ]

Ephemeris | Orbit Diagram | Orbital Elements | Mission Design | Physical Parameters | Discovery Circumstances ]

Physical Parameter Table
Parameter Symbol Value Units Sigma Reference Notes
absolute magnitude H 17.50   n/a E2021B25  

362452 (2010 RZ110)          Discovered 2010-Sep-11 by Spacewatch at Kitt Peak
Reference: Last Updated: 2013-04-29

Alternate Designations
 2010 RZ110 = 1999 RS72 
Ephemeris | Orbit Diagram | Orbital Elements | Mission Design | Physical Parameters | Discovery Circumstances ]
ABOUT SSD CREDITS/AWARDS PRIVACY/COPYRIGHT GLOSSARY LINKS
FirstGov 2021-Jun-25 03:18 UT
(server date/time)  
NASA Home Page
Site Manager:   Ryan S. Park
Webmaster  Alan B. Chamberlin